owner,sensor,date,latitude,longitude,air_temperature,qcFlag 
COMPS,ioos:station:USF.COMPS:C10:1,2010-04-02T14:20:00Z,27.1690,-82.9260,16.63,1111122 
COMPS,ioos:station:USF.COMPS:C10:1,2010-04-02T15:20:00Z,27.1690,-82.9260,16.94,1111122 
COMPS,ioos:station:USF.COMPS:C10:1,2010-04-02T15:40:00Z,27.1690,-82.9260,17.04,1111122 
COMPS,ioos:station:USF.COMPS:C10:1,2010-04-02T16:00:00Z,27.1690,-82.9260,16.96,1111122 
COMPS,ioos:station:USF.COMPS:C10:1,2010-04-02T16:20:00Z,27.1690,-82.9260,17.13,1111122 
COMPS,ioos:station:USF.COMPS:C10:1,2010-04-02T16:40:00Z,27.1690,-82.9260,17.33,1111122 
COMPS,ioos:station:USF.COMPS:C10:1,2010-04-02T17:00:00Z,27.1690,-82.9260,17.49,1111122 
COMPS,ioos:station:USF.COMPS:C10:1,2010-04-02T17:20:00Z,27.1690,-82.9260,17.62,1111122 
COMPS,ioos:station:USF.COMPS:C10:1,2010-04-02T17:40:00Z,27.1690,-82.9260,17.84,1111122 
COMPS,ioos:station:USF.COMPS:C10:1,2010-04-02T18:00:00Z,27.1690,-82.9260,17.98,1111122 
COMPS,ioos:station:USF.COMPS:C10:1,2010-04-02T18:20:00Z,27.1690,-82.9260,18.23,1111122 
COMPS,ioos:station:USF.COMPS:C10:1,2010-04-02T18:40:00Z,27.1690,-82.9260,18.25,1111122 
COMPS,ioos:station:USF.COMPS:C10:1,2010-04-02T19:00:00Z,27.1690,-82.9260,18.41,1111122 
COMPS,ioos:station:USF.COMPS:C10:1,2010-04-02T19:20:00Z,27.1690,-82.9260,18.26,1111122 
COMPS,ioos:station:USF.COMPS:C10:1,2010-04-02T19:40:00Z,27.1690,-82.9260,18.37,1111122 
COMPS,ioos:station:USF.COMPS:C10:1,2010-04-02T20:00:00Z,27.1690,-82.9260,18.56,1111122 
COMPS,ioos:station:USF.COMPS:C10:1,2010-04-02T20:20:00Z,27.1690,-82.9260,18.77,1111122 
COMPS,ioos:station:USF.COMPS:C10:1,2010-04-02T20:40:00Z,27.1690,-82.9260,18.75,1111122 
COMPS,ioos:station:USF.COMPS:C10:1,2010-04-02T21:00:00Z,27.1690,-82.9260,18.73,1111122 
COMPS,ioos:station:USF.COMPS:C10:1,2010-04-02T21:20:00Z,27.1690,-82.9260,18.75,1111122 
COMPS,ioos:station:USF.COMPS:C10:1,2010-04-02T21:40:00Z,27.1690,-82.9260,18.77,1111122 
COMPS,ioos:station:USF.COMPS:C10:1,2010-04-02T22:00:00Z,27.1690,-82.9260,18.65,1111122 
COMPS,ioos:station:USF.COMPS:C10:1,2010-04-02T22:20:00Z,27.1690,-82.9260,18.61,1111122 
COMPS,ioos:station:USF.COMPS:C10:1,2010-04-02T22:40:00Z,27.1690,-82.9260,18.58,1111122 
COMPS,ioos:station:USF.COMPS:C10:1,2010-04-02T23:00:00Z,27.1690,-82.9260,18.43,1111122 
COMPS,ioos:station:USF.COMPS:C10:1,2010-04-02T23:20:00Z,27.1690,-82.9260,18.34,1111122 
COMPS,ioos:station:USF.COMPS:C10:1,2010-04-02T23:40:00Z,27.1690,-82.9260,17.92,1111122 
COMPS,ioos:station:USF.COMPS:C10:1,2010-04-03T00:00:00Z,27.1690,-82.9260,17.54,1111122 
COMPS,ioos:station:USF.COMPS:C10:1,2010-04-03T00:20:00Z,27.1690,-82.9260,17.36,1111122 
COMPS,ioos:station:USF.COMPS:C10:1,2010-04-03T00:40:00Z,27.1690,-82.9260,17.35,1111122 
COMPS,ioos:station:USF.COMPS:C10:1,2010-04-03T01:00:00Z,27.1690,-82.9260,17.25,1111122 
COMPS,ioos:station:USF.COMPS:C10:1,2010-04-03T01:20:00Z,27.1690,-82.9260,17.24,1111122 
COMPS,ioos:station:USF.COMPS:C10:1,2010-04-03T01:40:00Z,27.1690,-82.9260,17.34,1111122 
COMPS,ioos:station:USF.COMPS:C10:1,2010-04-03T02:00:00Z,27.1690,-82.9260,17.41,1111122 
COMPS,ioos:station:USF.COMPS:C10:1,2010-04-03T02:20:00Z,27.1690,-82.9260,17.31,1111122 
COMPS,ioos:station:USF.COMPS:C10:1,2010-04-03T02:40:00Z,27.1690,-82.9260,17.31,1111122 
COMPS,ioos:station:USF.COMPS:C10:1,2010-04-03T03:00:00Z,27.1690,-82.9260,17.23,1111122 
COMPS,ioos:station:USF.COMPS:C10:1,2010-04-03T03:20:00Z,27.1690,-82.9260,17.18,1111122 
COMPS,ioos:station:USF.COMPS:C10:1,2010-04-03T03:40:00Z,27.1690,-82.9260,17.13,1111122 
COMPS,ioos:station:USF.COMPS:C10:1,2010-04-03T04:00:00Z,27.1690,-82.9260,17.04,1111122 
COMPS,ioos:station:USF.COMPS:C10:1,2010-04-03T04:20:00Z,27.1690,-82.9260,17.03,1111122 
COMPS,ioos:station:USF.COMPS:C10:1,2010-04-03T04:40:00Z,27.1690,-82.9260,17.07,1111122 
COMPS,ioos:station:USF.COMPS:C10:1,2010-04-03T05:00:00Z,27.1690,-82.9260,17.07,1111122 
COMPS,ioos:station:USF.COMPS:C10:1,2010-04-03T05:20:00Z,27.1690,-82.9260,17.03,1111122 
COMPS,ioos:station:USF.COMPS:C10:1,2010-04-03T05:40:00Z,27.1690,-82.9260,16.96,1111122 
COMPS,ioos:station:USF.COMPS:C10:1,2010-04-03T06:00:00Z,27.1690,-82.9260,16.85,1111122 
COMPS,ioos:station:USF.COMPS:C10:1,2010-04-03T06:20:00Z,27.1690,-82.9260,16.76,1111122 
COMPS,ioos:station:USF.COMPS:C10:1,2010-04-03T06:40:00Z,27.1690,-82.9260,16.69,1111122 
COMPS,ioos:station:USF.COMPS:C10:1,2010-04-03T07:00:00Z,27.1690,-82.9260,16.7,1111122 
COMPS,ioos:station:USF.COMPS:C10:1,2010-04-03T07:20:00Z,27.1690,-82.9260,16.88,1111122 
COMPS,ioos:station:USF.COMPS:C10:1,2010-04-03T07:40:00Z,27.1690,-82.9260,16.78,1111122 
COMPS,ioos:station:USF.COMPS:C10:1,2010-04-03T08:00:00Z,27.1690,-82.9260,16.68,1111122 
COMPS,ioos:station:USF.COMPS:C10:1,2010-04-03T08:20:00Z,27.1690,-82.9260,16.68,1111122 
COMPS,ioos:station:USF.COMPS:C10:1,2010-04-03T08:40:00Z,27.1690,-82.9260,16.64,1111122 
COMPS,ioos:station:USF.COMPS:C10:1,2010-04-03T09:00:00Z,27.1690,-82.9260,16.66,1111122 
COMPS,ioos:station:USF.COMPS:C10:1,2010-04-03T09:20:00Z,27.1690,-82.9260,16.79,1111122 
COMPS,ioos:station:USF.COMPS:C10:1,2010-04-03T09:40:00Z,27.1690,-82.9260,16.94,1111122 
COMPS,ioos:station:USF.COMPS:C10:1,2010-04-03T10:00:00Z,27.1690,-82.9260,16.97,1111122 
COMPS,ioos:station:USF.COMPS:C10:1,2010-04-03T10:20:00Z,27.1690,-82.9260,16.92,1111122 
COMPS,ioos:station:USF.COMPS:C10:1,2010-04-03T10:40:00Z,27.1690,-82.9260,17.0,1111122 
COMPS,ioos:station:USF.COMPS:C10:1,2010-04-03T11:00:00Z,27.1690,-82.9260,16.97,1111122 
COMPS,ioos:station:USF.COMPS:C10:1,2010-04-03T11:20:00Z,27.1690,-82.9260,16.95,1111122 
COMPS,ioos:station:USF.COMPS:C10:1,2010-04-03T11:40:00Z,27.1690,-82.9260,17.05,1111122 
COMPS,ioos:station:USF.COMPS:C10:1,2010-04-03T12:00:00Z,27.1690,-82.9260,17.1,1111122 
COMPS,ioos:station:USF.COMPS:C10:1,2010-04-03T12:20:00Z,27.1690,-82.9260,16.98,1111122 
COMPS,ioos:station:USF.COMPS:C10:1,2010-04-03T12:40:00Z,27.1690,-82.9260,16.94,1111122 
COMPS,ioos:station:USF.COMPS:C10:1,2010-04-03T13:00:00Z,27.1690,-82.9260,17.14,1111122 
COMPS,ioos:station:USF.COMPS:C10:1,2010-04-03T13:20:00Z,27.1690,-82.9260,17.2,1111122 
COMPS,ioos:station:USF.COMPS:C10:1,2010-04-03T13:40:00Z,27.1690,-82.9260,17.19,1111122 
COMPS,ioos:station:USF.COMPS:C10:1,2010-04-03T14:00:00Z,27.1690,-82.9260,17.19,1111122 
COMPS,ioos:station:USF.COMPS:C10:1,2010-04-03T14:20:00Z,27.1690,-82.9260,17.15,1111122 
COMPS,ioos:station:USF.COMPS:C10:1,2010-04-03T14:40:00Z,27.1690,-82.9260,17.09,1111122 
COMPS,ioos:station:USF.COMPS:C10:1,2010-04-03T15:00:00Z,27.1690,-82.9260,17.11,1111122 
COMPS,ioos:station:USF.COMPS:C10:1,2010-04-03T15:20:00Z,27.1690,-82.9260,17.12,1111122 
COMPS,ioos:station:USF.COMPS:C10:1,2010-04-03T15:40:00Z,27.1690,-82.9260,17.18,1111122 
COMPS,ioos:station:USF.COMPS:C10:1,2010-04-03T16:00:00Z,27.1690,-82.9260,17.33,1111122 
COMPS,ioos:station:USF.COMPS:C10:1,2010-04-03T16:20:00Z,27.1690,-82.9260,17.37,1111122 
COMPS,ioos:station:USF.COMPS:C10:1,2010-04-03T16:40:00Z,27.1690,-82.9260,17.51,1111122 
COMPS,ioos:station:USF.COMPS:C10:1,2010-04-03T17:00:00Z,27.1690,-82.9260,17.61,1111122 
COMPS,ioos:station:USF.COMPS:C10:1,2010-04-03T17:20:00Z,27.1690,-82.9260,17.85,1111122 
COMPS,ioos:station:USF.COMPS:C10:1,2010-04-03T17:40:00Z,27.1690,-82.9260,17.97,1111122 
COMPS,ioos:station:USF.COMPS:C10:1,2010-04-03T18:00:00Z,27.1690,-82.9260,18.1,1111122 
COMPS,ioos:station:USF.COMPS:C10:1,2010-04-03T18:20:00Z,27.1690,-82.9260,18.14,1111122 
COMPS,ioos:station:USF.COMPS:C10:1,2010-04-03T18:40:00Z,27.1690,-82.9260,18.27,1111122 
COMPS,ioos:station:USF.COMPS:C10:1,2010-04-03T19:00:00Z,27.1690,-82.9260,18.4,1111122 
COMPS,ioos:station:USF.COMPS:C10:1,2010-04-03T19:20:00Z,27.1690,-82.9260,18.59,1111122 
COMPS,ioos:station:USF.COMPS:C10:1,2010-04-03T19:40:00Z,27.1690,-82.9260,18.68,1111122 
COMPS,ioos:station:USF.COMPS:C10:1,2010-04-03T20:00:00Z,27.1690,-82.9260,18.61,1111122 
COMPS,ioos:station:USF.COMPS:C10:1,2010-04-03T20:20:00Z,27.1690,-82.9260,18.65,1111122 
COMPS,ioos:station:USF.COMPS:C10:1,2010-04-03T20:40:00Z,27.1690,-82.9260,18.68,1111122 
COMPS,ioos:station:USF.COMPS:C10:1,2010-04-03T21:00:00Z,27.1690,-82.9260,18.65,1111122 
COMPS,ioos:station:USF.COMPS:C10:1,2010-04-03T21:20:00Z,27.1690,-82.9260,18.72,1111122 
COMPS,ioos:station:USF.COMPS:C10:1,2010-04-03T21:40:00Z,27.1690,-82.9260,18.61,1111122 
COMPS,ioos:station:USF.COMPS:C10:1,2010-04-03T22:00:00Z,27.1690,-82.9260,18.5,1111122 
COMPS,ioos:station:USF.COMPS:C10:1,2010-04-03T22:20:00Z,27.1690,-82.9260,18.37,1111122 
COMPS,ioos:station:USF.COMPS:C10:1,2010-04-03T22:40:00Z,27.1690,-82.9260,18.29,1111122 
COMPS,ioos:station:USF.COMPS:C10:1,2010-04-03T23:00:00Z,27.1690,-82.9260,18.21,1111122 
COMPS,ioos:station:USF.COMPS:C10:1,2010-04-03T23:20:00Z,27.1690,-82.9260,18.11,1111122 
COMPS,ioos:station:USF.COMPS:C10:1,2010-04-03T23:40:00Z,27.1690,-82.9260,18.02,1111122 
COMPS,ioos:station:USF.COMPS:C10:1,2010-04-04T00:00:00Z,27.1690,-82.9260,17.87,1111122 
COMPS,ioos:station:USF.COMPS:C10:1,2010-04-04T00:20:00Z,27.1690,-82.9260,17.67,1111122 
COMPS,ioos:station:USF.COMPS:C10:1,2010-04-04T00:40:00Z,27.1690,-82.9260,17.55,1111122 
COMPS,ioos:station:USF.COMPS:C10:1,2010-04-04T01:00:00Z,27.1690,-82.9260,17.56,1111122 
COMPS,ioos:station:USF.COMPS:C10:1,2010-04-04T01:20:00Z,27.1690,-82.9260,17.55,1111122 
COMPS,ioos:station:USF.COMPS:C10:1,2010-04-04T01:40:00Z,27.1690,-82.9260,17.54,1111122 
COMPS,ioos:station:USF.COMPS:C10:1,2010-04-04T02:00:00Z,27.1690,-82.9260,17.58,1111122 
COMPS,ioos:station:USF.COMPS:C10:1,2010-04-04T02:20:00Z,27.1690,-82.9260,17.62,1111122 
COMPS,ioos:station:USF.COMPS:C10:1,2010-04-04T02:40:00Z,27.1690,-82.9260,17.67,1111122 
COMPS,ioos:station:USF.COMPS:C10:1,2010-04-04T03:00:00Z,27.1690,-82.9260,17.72,1111122 
COMPS,ioos:station:USF.COMPS:C10:1,2010-04-04T03:20:00Z,27.1690,-82.9260,17.75,1111122 
COMPS,ioos:station:USF.COMPS:C10:1,2010-04-04T03:40:00Z,27.1690,-82.9260,17.75,1111122 
COMPS,ioos:station:USF.COMPS:C10:1,2010-04-04T04:00:00Z,27.1690,-82.9260,17.77,1111122 
COMPS,ioos:station:USF.COMPS:C10:1,2010-04-04T04:20:00Z,27.1690,-82.9260,17.76,1111122 
COMPS,ioos:station:USF.COMPS:C10:1,2010-04-04T04:40:00Z,27.1690,-82.9260,17.74,1111122 
COMPS,ioos:station:USF.COMPS:C10:1,2010-04-04T05:00:00Z,27.1690,-82.9260,17.73,1111122 
COMPS,ioos:station:USF.COMPS:C10:1,2010-04-04T05:20:00Z,27.1690,-82.9260,17.73,1111122 
COMPS,ioos:station:USF.COMPS:C10:1,2010-04-04T05:40:00Z,27.1690,-82.9260,17.71,1111122 
COMPS,ioos:station:USF.COMPS:C10:1,2010-04-04T06:00:00Z,27.1690,-82.9260,17.86,1111122 
COMPS,ioos:station:USF.COMPS:C10:1,2010-04-04T06:20:00Z,27.1690,-82.9260,17.8,1111122 
COMPS,ioos:station:USF.COMPS:C10:1,2010-04-04T06:40:00Z,27.1690,-82.9260,17.71,1111122 
COMPS,ioos:station:USF.COMPS:C10:1,2010-04-04T07:00:00Z,27.1690,-82.9260,17.73,1111122 
COMPS,ioos:station:USF.COMPS:C10:1,2010-04-04T07:20:00Z,27.1690,-82.9260,17.67,1111122 
COMPS,ioos:station:USF.COMPS:C10:1,2010-04-04T07:40:00Z,27.1690,-82.9260,17.61,1111122 
COMPS,ioos:station:USF.COMPS:C10:1,2010-04-04T08:00:00Z,27.1690,-82.9260,17.46,1111122 
COMPS,ioos:station:USF.COMPS:C10:1,2010-04-04T08:20:00Z,27.1690,-82.9260,17.36,1111122 
COMPS,ioos:station:USF.COMPS:C10:1,2010-04-04T08:40:00Z,27.1690,-82.9260,17.32,1111122 
COMPS,ioos:station:USF.COMPS:C10:1,2010-04-04T09:00:00Z,27.1690,-82.9260,17.3,1111122 
COMPS,ioos:station:USF.COMPS:C10:1,2010-04-04T09:20:00Z,27.1690,-82.9260,17.28,1111122 
COMPS,ioos:station:USF.COMPS:C10:1,2010-04-04T09:40:00Z,27.1690,-82.9260,17.22,1111122 
COMPS,ioos:station:USF.COMPS:C10:1,2010-04-04T10:00:00Z,27.1690,-82.9260,17.14,1111122 
COMPS,ioos:station:USF.COMPS:C10:1,2010-04-04T10:20:00Z,27.1690,-82.9260,17.11,1111122 
COMPS,ioos:station:USF.COMPS:C10:1,2010-04-04T10:40:00Z,27.1690,-82.9260,17.1,1111122 
COMPS,ioos:station:USF.COMPS:C10:1,2010-04-04T11:00:00Z,27.1690,-82.9260,16.99,1111122 
COMPS,ioos:station:USF.COMPS:C10:1,2010-04-04T11:20:00Z,27.1690,-82.9260,16.89,1111122 
COMPS,ioos:station:USF.COMPS:C10:1,2010-04-04T11:40:00Z,27.1690,-82.9260,16.9,1111122 
COMPS,ioos:station:USF.COMPS:C10:1,2010-04-04T12:00:00Z,27.1690,-82.9260,16.97,1111122 
COMPS,ioos:station:USF.COMPS:C10:1,2010-04-04T12:20:00Z,27.1690,-82.9260,16.96,1111122 
COMPS,ioos:station:USF.COMPS:C10:1,2010-04-04T12:40:00Z,27.1690,-82.9260,17.02,1111122 
COMPS,ioos:station:USF.COMPS:C10:1,2010-04-04T13:00:00Z,27.1690,-82.9260,17.14,1111122 
COMPS,ioos:station:USF.COMPS:C10:1,2010-04-04T13:20:00Z,27.1690,-82.9260,17.27,1111122 
COMPS,ioos:station:USF.COMPS:C10:1,2010-04-04T13:40:00Z,27.1690,-82.9260,17.35,1111122 
COMPS,ioos:station:USF.COMPS:C10:1,2010-04-04T14:00:00Z,27.1690,-82.9260,17.38,1111122 
COMPS,ioos:station:USF.COMPS:C10:1,2010-04-04T14:20:00Z,27.1690,-82.9260,17.27,1111122 
COMPS,ioos:station:USF.COMPS:C10:1,2010-04-04T14:40:00Z,27.1690,-82.9260,17.26,1111122 
COMPS,ioos:station:USF.COMPS:C10:1,2010-04-04T15:00:00Z,27.1690,-82.9260,17.29,1111122 
COMPS,ioos:station:USF.COMPS:C10:1,2010-04-04T15:20:00Z,27.1690,-82.9260,17.26,1111122 
COMPS,ioos:station:USF.COMPS:C10:1,2010-04-04T15:40:00Z,27.1690,-82.9260,17.38,1111122 
COMPS,ioos:station:USF.COMPS:C10:1,2010-04-04T16:00:00Z,27.1690,-82.9260,17.61,1111122 
COMPS,ioos:station:USF.COMPS:C10:1,2010-04-04T16:20:00Z,27.1690,-82.9260,17.87,1111122 
COMPS,ioos:station:USF.COMPS:C10:1,2010-04-04T16:40:00Z,27.1690,-82.9260,18.11,1111122 
COMPS,ioos:station:USF.COMPS:C10:1,2010-04-04T17:00:00Z,27.1690,-82.9260,18.29,1111122 
COMPS,ioos:station:USF.COMPS:C10:1,2010-04-04T17:20:00Z,27.1690,-82.9260,18.53,1111122 
COMPS,ioos:station:USF.COMPS:C10:1,2010-04-04T17:40:00Z,27.1690,-82.9260,18.72,1111122 
COMPS,ioos:station:USF.COMPS:C10:1,2010-04-04T18:00:00Z,27.1690,-82.9260,19.1,1111122 
COMPS,ioos:station:USF.COMPS:C10:1,2010-04-04T18:20:00Z,27.1690,-82.9260,19.61,1111122 
COMPS,ioos:station:USF.COMPS:C10:1,2010-04-04T18:40:00Z,27.1690,-82.9260,19.86,1111122 
COMPS,ioos:station:USF.COMPS:C10:1,2010-04-04T19:00:00Z,27.1690,-82.9260,20.21,1111122 
COMPS,ioos:station:USF.COMPS:C10:1,2010-04-04T19:20:00Z,27.1690,-82.9260,20.41,1111122 
COMPS,ioos:station:USF.COMPS:C10:1,2010-04-04T19:40:00Z,27.1690,-82.9260,20.55,1111122 
COMPS,ioos:station:USF.COMPS:C10:1,2010-04-04T20:00:00Z,27.1690,-82.9260,20.27,1111122 
COMPS,ioos:station:USF.COMPS:C10:1,2010-04-04T20:20:00Z,27.1690,-82.9260,20.0,1111122 
COMPS,ioos:station:USF.COMPS:C10:1,2010-04-04T20:40:00Z,27.1690,-82.9260,19.81,1111122 
COMPS,ioos:station:USF.COMPS:C10:1,2010-04-04T21:00:00Z,27.1690,-82.9260,19.78,1111122 
COMPS,ioos:station:USF.COMPS:C10:1,2010-04-04T21:20:00Z,27.1690,-82.9260,19.7,1111122 
COMPS,ioos:station:USF.COMPS:C10:1,2010-04-04T21:40:00Z,27.1690,-82.9260,19.6,1111122 
COMPS,ioos:station:USF.COMPS:C10:1,2010-04-04T22:00:00Z,27.1690,-82.9260,19.38,1111122 
COMPS,ioos:station:USF.COMPS:C10:1,2010-04-04T22:20:00Z,27.1690,-82.9260,19.28,1111122 
COMPS,ioos:station:USF.COMPS:C10:1,2010-04-04T22:40:00Z,27.1690,-82.9260,19.1,1111122 
COMPS,ioos:station:USF.COMPS:C10:1,2010-04-04T23:00:00Z,27.1690,-82.9260,18.9,1111122 
COMPS,ioos:station:USF.COMPS:C10:1,2010-04-04T23:20:00Z,27.1690,-82.9260,18.82,1111122 
COMPS,ioos:station:USF.COMPS:C10:1,2010-04-04T23:40:00Z,27.1690,-82.9260,18.77,1111122 
COMPS,ioos:station:USF.COMPS:C10:1,2010-04-05T01:00:00Z,27.1690,-82.9260,18.64,1111122 
COMPS,ioos:station:USF.COMPS:C10:1,2010-04-05T01:20:00Z,27.1690,-82.9260,18.31,1111122 
COMPS,ioos:station:USF.COMPS:C10:1,2010-04-05T01:40:00Z,27.1690,-82.9260,18.25,1111122 
COMPS,ioos:station:USF.COMPS:C10:1,2010-04-05T02:00:00Z,27.1690,-82.9260,18.2,1111122 
COMPS,ioos:station:USF.COMPS:C10:1,2010-04-05T02:20:00Z,27.1690,-82.9260,18.16,1111122 
COMPS,ioos:station:USF.COMPS:C10:1,2010-04-05T02:40:00Z,27.1690,-82.9260,18.14,1111122 
COMPS,ioos:station:USF.COMPS:C10:1,2010-04-05T03:00:00Z,27.1690,-82.9260,18.26,1111122 
COMPS,ioos:station:USF.COMPS:C10:1,2010-04-05T03:20:00Z,27.1690,-82.9260,18.23,1111122 
COMPS,ioos:station:USF.COMPS:C10:1,2010-04-05T03:40:00Z,27.1690,-82.9260,18.33,1111122 
COMPS,ioos:station:USF.COMPS:C10:1,2010-04-05T04:00:00Z,27.1690,-82.9260,18.96,1111122 
COMPS,ioos:station:USF.COMPS:C10:1,2010-04-05T04:20:00Z,27.1690,-82.9260,19.08,1111122 
COMPS,ioos:station:USF.COMPS:C10:1,2010-04-05T04:40:00Z,27.1690,-82.9260,18.72,1111122 
COMPS,ioos:station:USF.COMPS:C10:1,2010-04-05T05:00:00Z,27.1690,-82.9260,18.65,1111122 
COMPS,ioos:station:USF.COMPS:C10:1,2010-04-05T05:20:00Z,27.1690,-82.9260,18.46,1111122 
COMPS,ioos:station:USF.COMPS:C10:1,2010-04-05T05:40:00Z,27.1690,-82.9260,18.34,1111122 
COMPS,ioos:station:USF.COMPS:C10:1,2010-04-05T06:00:00Z,27.1690,-82.9260,18.23,1111122 
COMPS,ioos:station:USF.COMPS:C10:1,2010-04-05T06:20:00Z,27.1690,-82.9260,18.09,1111122 
COMPS,ioos:station:USF.COMPS:C10:1,2010-04-05T06:40:00Z,27.1690,-82.9260,17.97,1111122 
COMPS,ioos:station:USF.COMPS:C10:1,2010-04-05T07:00:00Z,27.1690,-82.9260,17.88,1111122 
COMPS,ioos:station:USF.COMPS:C10:1,2010-04-05T07:20:00Z,27.1690,-82.9260,17.7,1111122 
COMPS,ioos:station:USF.COMPS:C10:1,2010-04-05T07:40:00Z,27.1690,-82.9260,17.62,1111122 
COMPS,ioos:station:USF.COMPS:C10:1,2010-04-05T08:00:00Z,27.1690,-82.9260,17.55,1111122 
COMPS,ioos:station:USF.COMPS:C10:1,2010-04-05T08:20:00Z,27.1690,-82.9260,17.56,1111122 
COMPS,ioos:station:USF.COMPS:C10:1,2010-04-05T08:40:00Z,27.1690,-82.9260,17.5,1111122 
COMPS,ioos:station:USF.COMPS:C10:1,2010-04-05T09:00:00Z,27.1690,-82.9260,17.4,1111122 
COMPS,ioos:station:USF.COMPS:C10:1,2010-04-05T09:20:00Z,27.1690,-82.9260,17.46,1111122 
COMPS,ioos:station:USF.COMPS:C10:1,2010-04-05T09:40:00Z,27.1690,-82.9260,17.3,1111122 
COMPS,ioos:station:USF.COMPS:C10:1,2010-04-05T10:00:00Z,27.1690,-82.9260,17.27,1111122 
COMPS,ioos:station:USF.COMPS:C10:1,2010-04-05T10:20:00Z,27.1690,-82.9260,17.14,1111122 
COMPS,ioos:station:USF.COMPS:C10:1,2010-04-05T10:40:00Z,27.1690,-82.9260,17.07,1111122 
COMPS,ioos:station:USF.COMPS:C10:1,2010-04-05T11:00:00Z,27.1690,-82.9260,17.03,1111122 
COMPS,ioos:station:USF.COMPS:C10:1,2010-04-05T11:20:00Z,27.1690,-82.9260,17.06,1111122 
COMPS,ioos:station:USF.COMPS:C10:1,2010-04-05T11:40:00Z,27.1690,-82.9260,17.1,1111122 
COMPS,ioos:station:USF.COMPS:C10:1,2010-04-05T12:00:00Z,27.1690,-82.9260,17.34,1111122 
COMPS,ioos:station:USF.COMPS:C10:1,2010-04-05T12:20:00Z,27.1690,-82.9260,17.45,1111122 
COMPS,ioos:station:USF.COMPS:C10:1,2010-04-05T12:40:00Z,27.1690,-82.9260,17.44,1111122 
COMPS,ioos:station:USF.COMPS:C10:1,2010-04-05T13:00:00Z,27.1690,-82.9260,17.41,1111122 
COMPS,ioos:station:USF.COMPS:C10:1,2010-04-05T13:20:00Z,27.1690,-82.9260,17.4,1111122 
COMPS,ioos:station:USF.COMPS:C10:1,2010-04-05T13:40:00Z,27.1690,-82.9260,17.45,1111122 
COMPS,ioos:station:USF.COMPS:C10:1,2010-04-05T14:00:00Z,27.1690,-82.9260,17.58,1111122 
COMPS,ioos:station:USF.COMPS:C10:1,2010-04-05T14:20:00Z,27.1690,-82.9260,17.72,1111122 
COMPS,ioos:station:USF.COMPS:C10:1,2010-04-05T14:40:00Z,27.1690,-82.9260,17.75,1111122 
COMPS,ioos:station:USF.COMPS:C10:1,2010-04-05T15:00:00Z,27.1690,-82.9260,17.87,1111122 
COMPS,ioos:station:USF.COMPS:C10:1,2010-04-05T15:20:00Z,27.1690,-82.9260,17.96,1111122 
COMPS,ioos:station:USF.COMPS:C10:1,2010-04-05T15:40:00Z,27.1690,-82.9260,18.24,1111122 
COMPS,ioos:station:USF.COMPS:C10:1,2010-04-05T16:00:00Z,27.1690,-82.9260,18.3,1111122 
COMPS,ioos:station:USF.COMPS:C10:1,2010-04-05T16:20:00Z,27.1690,-82.9260,18.23,1111122 
COMPS,ioos:station:USF.COMPS:C10:1,2010-04-05T16:40:00Z,27.1690,-82.9260,18.46,1111122 
COMPS,ioos:station:USF.COMPS:C10:1,2010-04-05T17:00:00Z,27.1690,-82.9260,18.67,1111122 
COMPS,ioos:station:USF.COMPS:C10:1,2010-04-05T17:20:00Z,27.1690,-82.9260,18.91,1111122 
COMPS,ioos:station:USF.COMPS:C10:1,2010-04-05T17:40:00Z,27.1690,-82.9260,18.94,1111122 
COMPS,ioos:station:USF.COMPS:C10:1,2010-04-05T18:00:00Z,27.1690,-82.9260,19.42,1111122 
COMPS,ioos:station:USF.COMPS:C10:1,2010-04-05T18:20:00Z,27.1690,-82.9260,19.54,1111122 
COMPS,ioos:station:USF.COMPS:C10:1,2010-04-05T18:40:00Z,27.1690,-82.9260,19.99,1111122 
COMPS,ioos:station:USF.COMPS:C10:1,2010-04-05T19:00:00Z,27.1690,-82.9260,20.02,1111122 
COMPS,ioos:station:USF.COMPS:C10:1,2010-04-05T19:20:00Z,27.1690,-82.9260,19.62,1111122 
COMPS,ioos:station:USF.COMPS:C10:1,2010-04-05T19:40:00Z,27.1690,-82.9260,19.35,1111122 
COMPS,ioos:station:USF.COMPS:C10:1,2010-04-05T20:00:00Z,27.1690,-82.9260,19.38,1111122 
COMPS,ioos:station:USF.COMPS:C10:1,2010-04-05T20:20:00Z,27.1690,-82.9260,19.32,1111122 
COMPS,ioos:station:USF.COMPS:C10:1,2010-04-05T20:40:00Z,27.1690,-82.9260,19.27,1111122 
COMPS,ioos:station:USF.COMPS:C10:1,2010-04-05T21:00:00Z,27.1690,-82.9260,19.34,1111122 
COMPS,ioos:station:USF.COMPS:C10:1,2010-04-05T21:20:00Z,27.1690,-82.9260,19.42,1111122 
COMPS,ioos:station:USF.COMPS:C10:1,2010-04-05T21:40:00Z,27.1690,-82.9260,19.4,1111122 
COMPS,ioos:station:USF.COMPS:C10:1,2010-04-05T22:00:00Z,27.1690,-82.9260,19.44,1111122 
COMPS,ioos:station:USF.COMPS:C10:1,2010-04-05T22:20:00Z,27.1690,-82.9260,19.45,1111122 
COMPS,ioos:station:USF.COMPS:C10:1,2010-04-05T22:40:00Z,27.1690,-82.9260,19.48,1111122 
COMPS,ioos:station:USF.COMPS:C10:1,2010-04-05T23:00:00Z,27.1690,-82.9260,19.36,1111122 
COMPS,ioos:station:USF.COMPS:C10:1,2010-04-05T23:20:00Z,27.1690,-82.9260,19.31,1111122 
COMPS,ioos:station:USF.COMPS:C10:1,2010-04-05T23:40:00Z,27.1690,-82.9260,19.14,1111122 
COMPS,ioos:station:USF.COMPS:C10:1,2010-04-06T00:00:00Z,27.1690,-82.9260,19.12,1111122 
COMPS,ioos:station:USF.COMPS:C10:1,2010-04-06T00:20:00Z,27.1690,-82.9260,18.97,1111122 
COMPS,ioos:station:USF.COMPS:C10:1,2010-04-06T00:40:00Z,27.1690,-82.9260,18.97,1111122 
COMPS,ioos:station:USF.COMPS:C10:1,2010-04-06T01:00:00Z,27.1690,-82.9260,18.8,1111122 
COMPS,ioos:station:USF.COMPS:C10:1,2010-04-06T01:20:00Z,27.1690,-82.9260,18.78,1111122 
COMPS,ioos:station:USF.COMPS:C10:1,2010-04-06T01:40:00Z,27.1690,-82.9260,18.72,1111122 
COMPS,ioos:station:USF.COMPS:C10:1,2010-04-06T02:00:00Z,27.1690,-82.9260,18.55,1111122 
COMPS,ioos:station:USF.COMPS:C10:1,2010-04-06T02:20:00Z,27.1690,-82.9260,18.46,1111122 
COMPS,ioos:station:USF.COMPS:C10:1,2010-04-06T02:40:00Z,27.1690,-82.9260,18.47,1111122 
COMPS,ioos:station:USF.COMPS:C10:1,2010-04-06T03:00:00Z,27.1690,-82.9260,18.4,1111122 
COMPS,ioos:station:USF.COMPS:C10:1,2010-04-06T03:20:00Z,27.1690,-82.9260,18.35,1111122 
COMPS,ioos:station:USF.COMPS:C10:1,2010-04-06T03:40:00Z,27.1690,-82.9260,18.34,1111122 
COMPS,ioos:station:USF.COMPS:C10:1,2010-04-06T04:00:00Z,27.1690,-82.9260,18.3,1111122 
COMPS,ioos:station:USF.COMPS:C10:1,2010-04-06T04:20:00Z,27.1690,-82.9260,18.25,1111122 
COMPS,ioos:station:USF.COMPS:C10:1,2010-04-06T04:40:00Z,27.1690,-82.9260,18.24,1111122 
COMPS,ioos:station:USF.COMPS:C10:1,2010-04-06T05:00:00Z,27.1690,-82.9260,18.23,1111122 
COMPS,ioos:station:USF.COMPS:C10:1,2010-04-06T05:20:00Z,27.1690,-82.9260,18.29,1111122 
COMPS,ioos:station:USF.COMPS:C10:1,2010-04-06T05:40:00Z,27.1690,-82.9260,18.37,1111122 
COMPS,ioos:station:USF.COMPS:C10:1,2010-04-06T06:00:00Z,27.1690,-82.9260,18.46,1111122 
COMPS,ioos:station:USF.COMPS:C10:1,2010-04-06T06:20:00Z,27.1690,-82.9260,18.5,1111122 
COMPS,ioos:station:USF.COMPS:C10:1,2010-04-06T06:40:00Z,27.1690,-82.9260,18.45,1111122 
COMPS,ioos:station:USF.COMPS:C10:1,2010-04-06T07:00:00Z,27.1690,-82.9260,18.36,1111122 
COMPS,ioos:station:USF.COMPS:C10:1,2010-04-06T07:20:00Z,27.1690,-82.9260,18.21,1111122 
COMPS,ioos:station:USF.COMPS:C10:1,2010-04-06T07:40:00Z,27.1690,-82.9260,18.13,1111122 
COMPS,ioos:station:USF.COMPS:C10:1,2010-04-06T08:00:00Z,27.1690,-82.9260,18.06,1111122 
COMPS,ioos:station:USF.COMPS:C10:1,2010-04-06T08:20:00Z,27.1690,-82.9260,18.13,1111122 
COMPS,ioos:station:USF.COMPS:C10:1,2010-04-06T08:40:00Z,27.1690,-82.9260,18.07,1111122 
COMPS,ioos:station:USF.COMPS:C10:1,2010-04-06T09:00:00Z,27.1690,-82.9260,18.04,1111122 
COMPS,ioos:station:USF.COMPS:C10:1,2010-04-06T09:20:00Z,27.1690,-82.9260,17.95,1111122 
COMPS,ioos:station:USF.COMPS:C10:1,2010-04-06T09:40:00Z,27.1690,-82.9260,17.86,1111122 
COMPS,ioos:station:USF.COMPS:C10:1,2010-04-06T10:00:00Z,27.1690,-82.9260,17.83,1111122 
COMPS,ioos:station:USF.COMPS:C10:1,2010-04-06T10:20:00Z,27.1690,-82.9260,17.73,1111122 